Time,TemperatureF,DewpointF,PressureIn,WindDirection,WindDirectionDegrees,WindSpeedMPH,WindSpeedGustMPH,Humidity,HourlyPrecipIn,Conditions,Clouds,dailyrainin,SoftwareType,DateUTC
2013-04-27 00:04:00,45.5,44.0,30.39,SE,126,1.0,2.0,95,0.00,,,0.00,weatherlink.com 1.10,2013-04-27 04:04:00,
2013-04-27 00:19:00,45.2,44.0,30.39,SE,129,0.0,2.0,95,0.00,,,0.00,weatherlink.com 1.10,2013-04-27 04:19:00,
2013-04-27 00:34:00,45.2,44.0,30.39,ESE,122,1.0,1.0,96,0.00,,,0.00,weatherlink.com 1.10,2013-04-27 04:34:00,
2013-04-27 00:50:00,44.9,44.0,30.39,ESE,103,0.0,1.0,96,0.00,,,0.00,weatherlink.com 1.10,2013-04-27 04:50:00,
2013-04-27 01:05:00,44.7,44.0,30.39,ESE,103,0.0,1.0,96,0.00,,,0.00,weatherlink.com 1.10,2013-04-27 05:05:00,
2013-04-27 01:20:00,45.1,44.0,30.39,ESE,103,0.0,0.0,96,0.00,,,0.00,weatherlink.com 1.10,2013-04-27 05:20:00,
2013-04-27 01:35:00,45.1,44.0,30.38,ESE,103,0.0,0.0,96,0.00,,,0.00,weatherlink.com 1.10,2013-04-27 05:35:00,
2013-04-27 01:50:00,44.7,44.0,30.38,ESE,103,0.0,0.0,96,0.00,,,0.00,weatherlink.com 1.10,2013-04-27 05:50:00,
2013-04-27 02:05:00,44.5,44.0,30.38,WSW,255,0.0,1.0,96,0.00,,,0.00,weatherlink.com 1.10,2013-04-27 06:05:00,
2013-04-27 02:20:00,44.4,43.0,30.38,West,266,0.0,1.0,96,0.00,,,0.00,weatherlink.com 1.10,2013-04-27 06:20:00,
2013-04-27 02:35:00,44.4,43.0,30.38,SSW,207,0.0,1.0,96,0.00,,,0.00,weatherlink.com 1.10,2013-04-27 06:35:00,
2013-04-27 02:50:00,44.3,43.0,30.38,South,169,0.0,1.0,96,0.00,,,0.00,weatherlink.com 1.10,2013-04-27 06:50:00,
2013-04-27 03:05:00,44.2,43.0,30.38,South,169,0.0,1.0,96,0.00,,,0.00,weatherlink.com 1.10,2013-04-27 07:05:00,
2013-04-27 03:20:00,43.6,43.0,30.38,SSE,156,0.0,1.0,96,0.00,,,0.00,weatherlink.com 1.10,2013-04-27 07:20:00,
2013-04-27 03:35:00,42.9,42.0,30.38,SSE,156,0.0,0.0,96,0.00,,,0.00,weatherlink.com 1.10,2013-04-27 07:35:00,
2013-04-27 03:50:00,42.3,41.0,30.37,ESE,118,0.0,0.0,96,0.00,,,0.00,weatherlink.com 1.10,2013-04-27 07:50:00,
2013-04-27 04:05:00,41.8,41.0,30.37,ESE,118,0.0,0.0,96,0.00,,,0.00,weatherlink.com 1.10,2013-04-27 08:05:00,
2013-04-27 04:20:00,41.5,41.0,30.37,ESE,119,0.0,1.0,96,0.00,,,0.00,weatherlink.com 1.10,2013-04-27 08:20:00,
2013-04-27 04:35:00,41.2,40.0,30.37,ESE,118,0.0,1.0,96,0.00,,,0.00,weatherlink.com 1.10,2013-04-27 08:35:00,
2013-04-27 04:50:00,41.1,40.0,30.37,ESE,117,0.0,0.0,96,0.00,,,0.00,weatherlink.com 1.10,2013-04-27 08:50:00,
2013-04-27 05:05:00,41.8,41.0,30.37,ESE,119,0.0,1.0,97,0.00,,,0.00,weatherlink.com 1.10,2013-04-27 09:05:00,
2013-04-27 05:20:00,40.9,40.0,30.37,ESE,119,0.0,0.0,96,0.00,,,0.00,weatherlink.com 1.10,2013-04-27 09:20:00,
2013-04-27 05:35:00,-999.0,-99.9,30.37,North,-999,-999.0,-999.0,-999,0.00,,,0.00,weatherlink.com 1.10,2013-04-27 09:35:00,
2013-04-27 05:50:00,-999.0,-99.9,30.37,North,-999,-999.0,-999.0,-999,0.00,,,0.00,weatherlink.com 1.10,2013-04-27 09:50:00,
2013-04-27 06:05:00,-999.0,-99.9,30.37,North,-999,-999.0,-999.0,-999,0.00,,,0.00,weatherlink.com 1.10,2013-04-27 10:05:00,
2013-04-27 06:20:00,-999.0,-99.9,30.38,North,-999,-999.0,-999.0,-999,0.00,,,0.00,weatherlink.com 1.10,2013-04-27 10:20:00,
2013-04-27 06:35:00,-999.0,-99.9,30.38,North,-999,-999.0,-999.0,-999,0.00,,,0.00,weatherlink.com 1.10,2013-04-27 10:35:00,
2013-04-27 06:50:00,42.1,41.0,30.38,SE,126,0.0,0.0,97,0.00,,,0.00,weatherlink.com 1.10,2013-04-27 10:50:00,
2013-04-27 07:05:00,42.9,42.0,30.38,SE,126,0.0,0.0,97,0.00,,,0.00,weatherlink.com 1.10,2013-04-27 11:05:00,
2013-04-27 07:20:00,43.6,43.0,30.38,West,274,0.0,1.0,97,0.00,,,0.00,weatherlink.com 1.10,2013-04-27 11:20:00,
2013-04-27 07:35:00,44.4,44.0,30.38,WSW,253,0.0,1.0,97,0.00,,,0.00,weatherlink.com 1.10,2013-04-27 11:35:00,
2013-04-27 07:50:00,44.8,44.0,30.38,WSW,257,0.0,2.0,97,0.00,,,0.00,weatherlink.com 1.10,2013-04-27 11:50:00,
2013-04-27 08:05:00,45.7,45.0,30.39,SW,229,0.0,2.0,96,0.00,,,0.00,weatherlink.com 1.10,2013-04-27 12:05:00,
2013-04-27 08:20:00,46.7,46.0,30.39,West,274,0.0,3.0,96,0.00,,,0.00,weatherlink.com 1.10,2013-04-27 12:20:00,
2013-04-27 08:35:00,47.7,46.0,30.40,SE,146,0.0,2.0,95,0.00,,,0.00,weatherlink.com 1.10,2013-04-27 12:35:00,
2013-04-27 08:51:00,49.1,47.0,30.39,SE,130,1.0,3.0,93,0.00,,,0.00,weatherlink.com 1.10,2013-04-27 12:51:00,
2013-04-27 09:06:00,51.0,49.0,30.39,ESE,113,1.0,3.0,91,0.00,,,0.00,weatherlink.com 1.10,2013-04-27 13:06:00,
2013-04-27 09:21:00,51.3,48.0,30.39,SE,136,1.0,2.0,88,0.00,,,0.00,weatherlink.com 1.10,2013-04-27 13:21:00,
2013-04-27 09:36:00,51.9,48.0,30.38,SSE,167,1.0,2.0,87,0.00,,,0.00,weatherlink.com 1.10,2013-04-27 13:36:00,
2013-04-27 09:51:00,53.1,48.0,30.39,SSE,147,1.0,3.0,84,0.00,,,0.00,weatherlink.com 1.10,2013-04-27 13:51:00,
2013-04-27 10:06:00,53.4,48.0,30.39,SW,235,2.0,4.0,82,0.00,,,0.00,weatherlink.com 1.10,2013-04-27 14:06:00,
2013-04-27 10:21:00,54.0,49.0,30.40,SE,134,2.0,3.0,82,0.00,,,0.00,weatherlink.com 1.10,2013-04-27 14:21:00,
2013-04-27 10:36:00,52.5,47.0,30.40,South,188,1.0,3.0,82,0.00,,,0.00,weatherlink.com 1.10,2013-04-27 14:36:00,
2013-04-27 10:51:00,51.8,47.0,30.40,SSE,160,2.0,3.0,84,0.00,,,0.00,weatherlink.com 1.10,2013-04-27 14:51:00,
2013-04-27 11:06:00,52.7,48.0,30.40,South,177,1.0,4.0,84,0.00,,,0.00,weatherlink.com 1.10,2013-04-27 15:06:00,
2013-04-27 11:21:00,52.2,47.0,30.40,SSE,150,2.0,4.0,83,0.00,,,0.00,weatherlink.com 1.10,2013-04-27 15:21:00,
2013-04-27 11:36:00,53.6,48.0,30.39,SE,136,2.0,4.0,81,0.00,,,0.00,weatherlink.com 1.10,2013-04-27 15:36:00,
2013-04-27 11:51:00,54.5,49.0,30.39,SSE,154,2.0,4.0,82,0.00,,,0.00,weatherlink.com 1.10,2013-04-27 15:51:00,
2013-04-27 12:06:00,55.1,48.0,30.39,SSE,159,2.0,4.0,78,0.00,,,0.00,weatherlink.com 1.10,2013-04-27 16:06:00,
2013-04-27 12:21:00,55.8,50.0,30.38,ESE,115,1.0,3.0,82,0.00,,,0.00,weatherlink.com 1.10,2013-04-27 16:21:00,
2013-04-27 12:36:00,56.5,50.0,30.37,SE,139,3.0,4.0,79,0.00,,,0.00,weatherlink.com 1.10,2013-04-27 16:36:00,
2013-04-27 12:51:00,55.9,50.0,30.37,SSE,167,4.0,5.0,79,0.00,,,0.00,weatherlink.com 1.10,2013-04-27 16:51:00,
2013-04-27 13:06:00,56.6,50.0,30.36,SE,126,2.0,5.0,79,0.00,,,0.00,weatherlink.com 1.10,2013-04-27 17:06:00,
2013-04-27 13:21:00,56.9,50.0,30.36,SSE,165,3.0,5.0,79,0.00,,,0.00,weatherlink.com 1.10,2013-04-27 17:21:00,
2013-04-27 13:36:00,58.1,51.0,30.36,South,180,2.0,4.0,77,0.00,,,0.00,weatherlink.com 1.10,2013-04-27 17:36:00,
2013-04-27 13:51:00,57.9,50.0,30.35,SSE,148,2.0,5.0,76,0.00,,,0.00,weatherlink.com 1.10,2013-04-27 17:51:00,
2013-04-27 14:06:00,57.7,50.0,30.35,SSE,155,2.0,5.0,76,0.00,,,0.00,weatherlink.com 1.10,2013-04-27 18:06:00,
2013-04-27 14:21:00,58.0,50.0,30.35,SSE,159,4.0,5.0,76,0.00,,,0.00,weatherlink.com 1.10,2013-04-27 18:21:00,
2013-04-27 14:36:00,57.8,50.0,30.35,SSE,165,2.0,3.0,75,0.00,,,0.00,weatherlink.com 1.10,2013-04-27 18:36:00,
2013-04-27 14:52:00,57.7,51.0,30.35,SE,131,1.0,4.0,77,0.00,,,0.00,weatherlink.com 1.10,2013-04-27 18:52:00,
2013-04-27 15:06:00,57.5,50.0,30.34,SE,131,1.0,3.0,76,0.00,,,0.00,weatherlink.com 1.10,2013-04-27 19:06:00,
2013-04-27 15:21:00,57.4,50.0,30.33,SSE,151,1.0,4.0,76,0.00,,,0.00,weatherlink.com 1.10,2013-04-27 19:21:00,
2013-04-27 15:36:00,57.8,50.0,30.33,SE,142,1.0,3.0,76,0.00,,,0.00,weatherlink.com 1.10,2013-04-27 19:36:00,
2013-04-27 15:51:00,58.4,51.0,30.33,South,174,3.0,3.0,76,0.00,,,0.00,weatherlink.com 1.10,2013-04-27 19:51:00,
2013-04-27 16:06:00,57.9,50.0,30.32,SE,146,2.0,4.0,74,0.00,,,0.00,weatherlink.com 1.10,2013-04-27 20:06:00,
2013-04-27 16:21:00,57.8,50.0,30.32,SSE,153,1.0,3.0,75,0.00,,,0.00,weatherlink.com 1.10,2013-04-27 20:21:00,
2013-04-27 16:36:00,57.0,49.0,30.32,SE,138,3.0,3.0,75,0.00,,,0.00,weatherlink.com 1.10,2013-04-27 20:36:00,
2013-04-27 16:51:00,56.7,49.0,30.32,SE,136,0.0,2.0,76,0.00,,,0.00,weatherlink.com 1.10,2013-04-27 20:51:00,
2013-04-27 17:06:00,55.4,48.0,30.32,SE,132,1.0,2.0,76,0.00,,,0.00,weatherlink.com 1.10,2013-04-27 21:06:00,
2013-04-27 17:21:00,54.8,48.0,30.32,SSE,148,1.0,2.0,78,0.00,,,0.00,weatherlink.com 1.10,2013-04-27 21:21:00,
2013-04-27 17:36:00,55.0,48.0,30.32,SE,127,1.0,2.0,77,0.00,,,0.00,weatherlink.com 1.10,2013-04-27 21:36:00,
2013-04-27 17:52:00,54.2,47.0,30.32,SE,143,0.0,2.0,78,0.00,,,0.00,weatherlink.com 1.10,2013-04-27 21:52:00,
2013-04-27 18:07:00,53.7,47.0,30.31,SE,135,1.0,2.0,79,0.00,,,0.00,weatherlink.com 1.10,2013-04-27 22:07:00,
2013-04-27 18:22:00,52.8,47.0,30.31,SE,139,1.0,2.0,80,0.00,,,0.00,weatherlink.com 1.10,2013-04-27 22:22:00,
2013-04-27 18:37:00,51.3,46.0,30.32,SE,132,0.0,3.0,81,0.00,,,0.00,weatherlink.com 1.10,2013-04-27 22:37:00,
2013-04-27 18:52:00,50.2,46.0,30.31,ESE,117,0.0,2.0,84,0.00,,,0.00,weatherlink.com 1.10,2013-04-27 22:52:00,
2013-04-27 19:07:00,49.1,45.0,30.31,SE,128,0.0,1.0,85,0.00,,,0.00,weatherlink.com 1.10,2013-04-27 23:07:00,
2013-04-27 19:22:00,47.9,44.0,30.32,SE,129,0.0,1.0,86,0.00,,,0.00,weatherlink.com 1.10,2013-04-27 23:22:00,
2013-04-27 19:37:00,46.6,43.0,30.31,SE,129,0.0,0.0,87,0.00,,,0.00,weatherlink.com 1.10,2013-04-27 23:37:00,
2013-04-27 19:52:00,45.8,43.0,30.31,SE,128,0.0,0.0,89,0.00,,,0.00,weatherlink.com 1.10,2013-04-27 23:52:00,
2013-04-27 20:07:00,45.3,43.0,30.31,SE,129,0.0,0.0,90,0.00,,,0.00,weatherlink.com 1.10,2013-04-28 00:07:00,
2013-04-27 20:22:00,44.9,42.0,30.31,SE,128,0.0,0.0,90,0.00,,,0.00,weatherlink.com 1.10,2013-04-28 00:22:00,
2013-04-27 20:37:00,45.0,43.0,30.32,SE,129,0.0,0.0,91,0.00,,,0.00,weatherlink.com 1.10,2013-04-28 00:37:00,
2013-04-27 20:52:00,44.5,42.0,30.32,SE,129,0.0,0.0,91,0.00,,,0.00,weatherlink.com 1.10,2013-04-28 00:52:00,
2013-04-27 21:07:00,44.5,42.0,30.33,SE,128,0.0,0.0,92,0.00,,,0.00,weatherlink.com 1.10,2013-04-28 01:07:00,
2013-04-27 21:22:00,44.8,43.0,30.33,SE,136,0.0,1.0,93,0.00,,,0.00,weatherlink.com 1.10,2013-04-28 01:22:00,
2013-04-27 21:37:00,43.9,42.0,30.33,SE,136,0.0,0.0,92,0.00,,,0.00,weatherlink.com 1.10,2013-04-28 01:37:00,
2013-04-27 21:52:00,43.7,42.0,30.33,SW,226,0.0,0.0,93,0.00,,,0.00,weatherlink.com 1.10,2013-04-28 01:52:00,
2013-04-27 22:08:00,43.3,42.0,30.33,West,278,0.0,1.0,94,0.00,,,0.00,weatherlink.com 1.10,2013-04-28 02:08:00,
2013-04-27 22:22:00,42.9,41.0,30.33,West,278,0.0,0.0,94,0.00,,,0.00,weatherlink.com 1.10,2013-04-28 02:22:00,
2013-04-27 22:37:00,42.4,41.0,30.33,West,278,1.0,1.0,95,0.00,,,0.00,weatherlink.com 1.10,2013-04-28 02:37:00,
2013-04-27 22:52:00,42.1,41.0,30.33,NW,309,0.0,1.0,95,0.00,,,0.00,weatherlink.com 1.10,2013-04-28 02:52:00,
2013-04-27 23:07:00,41.4,40.0,30.33,NW,309,0.0,0.0,95,0.00,,,0.00,weatherlink.com 1.10,2013-04-28 03:07:00,
2013-04-27 23:22:00,41.0,40.0,30.33,NW,309,0.0,0.0,95,0.00,,,0.00,weatherlink.com 1.10,2013-04-28 03:22:00,
2013-04-27 23:37:00,41.0,40.0,30.33,NW,309,0.0,0.0,96,0.00,,,0.00,weatherlink.com 1.10,2013-04-28 03:37:00,
2013-04-27 23:52:00,41.5,41.0,30.32,NW,309,0.0,0.0,96,0.00,,,0.00,weatherlink.com 1.10,2013-04-28 03:52:00,